Regional Weather Roundup
Issued by NWS

Home | Current Version | Previous Version | Text Only | Print | Product List | Glossary Off
Versions: 1 2 3 4 5 6 7 8 9 10 11 12 13 14 15 16 17 18 19 20 21 22 23 24 25 26 27 28 29 30 31 32 33 34 35 36 37 38 39 40 41 42 43 44 45 46 47 48 49 50

000
ASUS43 KFSD 191710
RWRSD

WEATHER ROUNDUP FOR SOUTH DAKOTA
NATIONAL WEATHER SERVICE SIOUX FALLS SD
1100 AM CST SUN FEB 19 2017

NOTE: "FAIR" INDICATES FEW OR NO CLOUDS BELOW 12,000 FEET WITH NO
SIGNIFICANT WEATHER AND/OR OBSTRUCTIONS TO VISIBILITY.


SDZ001>005-009-010-012>017-191800-
NORTHWEST AND NORTH CENTRAL SOUTH DAKOTA

CITY           SKY/WX    TMP DP  RH WIND       PRES   REMARKS
BUFFALO          N/A     54  37  52 S10       29.42F
FAITH            N/A     52  37  56 S17       29.50S
MOBRIDGE       MOSUNNY   43  34  70 SE16      29.53F
$$

SDZ012>016-024>037-041>051-057-063-072>074-191800-
SOUTHWEST AND SOUTH CENTRAL SOUTH DAKOTA

CITY           SKY/WX    TMP DP  RH WIND       PRES   REMARKS
RAPID CTY ARPT CLOUDY    55  34  45 SE5       29.53F
PIERRE         SUNNY     54  38  54 S16       29.56F
CUSTER         CLOUDY    52  27  38 SW16G24   29.60S
ELLSWORTH AFB  MOSUNNY   54  33  45 S14       29.52F
PHILIP         SUNNY     58  36  43 SW10      29.54F
PINE RIDGE     SUNNY     52  35  52 SW8       29.60S
SPEARFISH      FAIR      63  28  27 SW25G37   29.49F
WINNER         FAIR      58  39  49 S18G28    29.62R
$$

SDZ004>011-016>023-039-040-191800-
NORTHEAST SOUTH DAKOTA

CITY           SKY/WX    TMP DP  RH WIND       PRES   REMARKS
ABERDEEN       MOSUNNY   49  39  68 S16G23    29.66F
WATERTOWN      CLOUDY    46  40  79 S10       29.73F
BROOKINGS      CLOUDY    49  41  74 S15       29.76R
SISSETON         N/A     40  39  97 S8        29.74F
$$

SDZ017-020-022-023-036>040-048>070-191800-
SOUTHEAST SOUTH DAKOTA

CITY           SKY/WX    TMP DP  RH WIND       PRES   REMARKS
SIOUX FALLS    CLOUDY    52  44  74 S13       29.79S
HURON          SUNNY     51  41  68 S23G31    29.66F
CHAMBERLAIN    SUNNY     56  43  61 S9        29.64R
MITCHELL       SUNNY     53  43  68 S22       29.70F
YANKTON        CLOUDY    52  45  76 SE10      29.76S
$$

ABBREVIATIONS USED IN REMARKS
   TC - TEMPERATURE IN CELSIUS
  WCI - WIND CHILL INDEX
   HX - HEAT INDEX
  VSB - VISIBILITY





USA.gov is the U.S. government's official web portal to all federal, state and local government web resources and services.